(95640) = 1999 TF240 = 2002 GC80

Discovered at Socorro on 2002-04-10 by LINEAR.

Orbit

Orbit type: Main Belt

Note: WebGL enabled browser required.

epoch2024-03-31.0
epoch JD2460400.5
perihelion date2022-05-06.15571
perihelion JD2459705.65571
argument of perihelion (°)243.84564
ascending node (°)162.41124
inclination (°)9.49581
eccentricity0.0535095
perihelion distance (AU)2.9774948
Tisserand w.r.t. Jupiter3.2
ΔV w.r.t. Earth (km/sec)11.1
semimajor axis (AU)3.1458263
mean anomaly (°)122.74088
mean daily motion (°/day)0.17664520
aphelion distance (AU)3.314
period (years)5.58
P-vector [x]0.68770973
P-vector [y]0.71097947
P-vector [z]0.14684522
Q-vector [x]-0.72427207
Q-vector [y]0.65801513
Q-vector [z]0.20602442
absolute magnitude14.78
phase slope0.15
uncertainty0
referenceMPEC 2024-F28
observations used1043
oppositions19
arc length (days)8931
first opposition used1999
last opposition used2024
residual rms (arc-secs)0.68
perturbers coarse indicatorM-v
perturbers precise indicator003Ek
first observation date used1999-10-04.0
last observation date used2024-03-17.0
computer nameMPCLINUX
JD of orbit computation2456937.470497
perihelion JD uncertainty (days)2.0895E-04
argument of perihelion uncertainty (°)3.9856E-05
ascending node uncertainty (°)2.2216E-05
inclination uncertainty (°)3.8970E-06
eccentricity uncertainty 3.8188E-08
perihelion distance uncertainty (AU)1.2780E-07
Minimum Orbit Intersection Distances (in AU)
for orbit epoch: 2460400.5, reference: E2024-G77
Mercury2.65463
Venus2.26001
Earth2.00017
Mars1.4894
Jupiter1.92117
Saturn6.04209
Uranus15.2049
Neptune26.8482

Observations

1059 total observations over interval: 1999 10 04.30948 – 2024 03 17.475278
These data are available for download (format description).

Date (UT) J2000 RA J2000 Dec Magn Location Ref
1999 10 04.30948 02 14 19.54 +03 28 56.2 18.7 R 703 – Catalina Sky Survey MPS 15429
1999 10 04.32157 02 14 19.14 +03 28 52.6 19.3 R 703 – Catalina Sky Survey MPS 15429
1999 10 04.33369 02 14 18.82 +03 28 48.1 18.3 R 703 – Catalina Sky Survey MPS 15429
1999 10 04.34578 02 14 18.31 +03 28 42.1 18.8 R 703 – Catalina Sky Survey MPS 15429
1999 10 09.26678 02 11 24.96 +02 55 31.4 18.8   704 – Lincoln Laboratory ETS, New Mexico MPS 15429
1999 10 09.28234 02 11 24.38 +02 55 25.1 18.6   704 – Lincoln Laboratory ETS, New Mexico MPS 15429
1999 10 09.29780 02 11 23.82 +02 55 17.9 19.0   704 – Lincoln Laboratory ETS, New Mexico MPS 15429
1999 10 09.31323 02 11 23.21 +02 55 13.2 19.4   704 – Lincoln Laboratory ETS, New Mexico MPS 15429
2001 01 04.32940 08 12 27.33 +09 51 13.9 19.6   704 – Lincoln Laboratory ETS, New Mexico MPS 57443
2001 01 04.34416 08 12 26.76 +09 51 14.9 19.2   704 – Lincoln Laboratory ETS, New Mexico MPS 57443
2001 01 04.35892 08 12 26.06 +09 51 19.1 19.3   704 – Lincoln Laboratory ETS, New Mexico MPS 57443
2001 01 04.37450 08 12 25.44 +09 51 21.5 19.3   704 – Lincoln Laboratory ETS, New Mexico MPS 57443
2001 01 19.31023 08 00 48.93 +10 47 58.1 18.5   704 – Lincoln Laboratory ETS, New Mexico MPS 57443
2001 01 19.32567 08 00 48.22 +10 48 01.3 19.1   704 – Lincoln Laboratory ETS, New Mexico MPS 57443
2001 01 19.34172 08 00 47.37 +10 48 06.4 18.6   704 – Lincoln Laboratory ETS, New Mexico MPS 57443
2001 01 19.35712 08 00 46.55 +10 48 11.4 19.2   704 – Lincoln Laboratory ETS, New Mexico MPS 57443
2002 04 10.30132 12 59 19.77 +01 33 43.9 19.1   704 – Lincoln Laboratory ETS, New Mexico MPS 55196
2002 04 10.31317 12 59 19.22 +01 33 48.6 19.7   704 – Lincoln Laboratory ETS, New Mexico MPS 55196
2002 04 10.32481 12 59 18.80 +01 33 52.5 19.1   704 – Lincoln Laboratory ETS, New Mexico MPS 55196
2002 04 10.33659 12 59 18.26 +01 33 56.0 19.3   704 – Lincoln Laboratory ETS, New Mexico MPS 55196
2002 04 10.34829 12 59 17.78 +01 34 00.9 18.8   704 – Lincoln Laboratory ETS, New Mexico MPS 55196
2002 04 11.30913 12 58 38.39 +01 39 46.1 19.2   704 – Lincoln Laboratory ETS, New Mexico MPS 55196
2002 04 11.32090 12 58 37.94 +01 39 50.9 19.4   704 – Lincoln Laboratory ETS, New Mexico MPS 55196
2002 04 11.33266 12 58 37.43 +01 39 54.9 19.4   704 – Lincoln Laboratory ETS, New Mexico MPS 55196
2002 04 11.34441 12 58 36.89 +01 39 59.1 19.6   704 – Lincoln Laboratory ETS, New Mexico MPS 55196
2002 04 11.35616 12 58 36.40 +01 40 03.4 19.1   704 – Lincoln Laboratory ETS, New Mexico MPS 55196
2002 04 16.25949 12 55 19.35 +02 08 05.2 19.7   704 – Lincoln Laboratory ETS, New Mexico MPS 57443
2002 04 16.27354 12 55 18.81 +02 08 10.8 19.4   704 – Lincoln Laboratory ETS, New Mexico MPS 57443
2002 04 16.28757 12 55 18.28 +02 08 15.0 20.5   704 – Lincoln Laboratory ETS, New Mexico MPS 57443
2002 04 16.30161 12 55 17.75 +02 08 22.1 20.1   704 – Lincoln Laboratory ETS, New Mexico MPS 57443
2002 04 16.31565 12 55 17.07 +02 08 24.4 19.8   704 – Lincoln Laboratory ETS, New Mexico MPS 57443
2002 05 03.20422 12 45 40.45 +03 22 51.2 20.2 V 291 – LPL/Spacewatch II MPS 57443
2002 05 03.20992 12 45 40.28 +03 22 52.3 20.3 V 291 – LPL/Spacewatch II MPS 57443
2002 05 03.21421 12 45 40.15 +03 22 53.3 20.2 V 291 – LPL/Spacewatch II MPS 57443
2004 08 10.22856 22 54 36.67 -04 55 07.9 19.8   704 – Lincoln Laboratory ETS, New Mexico MPS 111109
2004 08 10.23872 22 54 36.28 -04 55 12.0 19.9   704 – Lincoln Laboratory ETS, New Mexico MPS 111109
2004 08 10.24880 22 54 35.96 -04 55 14.6 19.7   704 – Lincoln Laboratory ETS, New Mexico MPS 111109
2004 08 10.25906 22 54 35.68 -04 55 17.6 19.9   704 – Lincoln Laboratory ETS, New Mexico MPS 111109
2004 08 10.26916 22 54 35.34 -04 55 21.5 19.7   704 – Lincoln Laboratory ETS, New Mexico MPS 111109
2004 08 26.31219 22 44 54.23 -06 37 57.0 18.6 R 703 – Catalina Sky Survey MPS 112181
2004 08 26.32293 22 44 53.92 -06 38 00.5 17.5 R 703 – Catalina Sky Survey MPS 112181
2004 08 26.33373 22 44 53.24 -06 38 06.2 18.4 R 703 – Catalina Sky Survey MPS 112181
2004 08 26.34443 22 44 52.94 -06 38 09.8 18.2 R 703 – Catalina Sky Survey MPS 112181
2004 09 06.61801 22 37 11.54 -07 57 30.5 18.4 R E12 – Siding Spring Survey MPS 112690
2004 09 06.62363 22 37 11.28 -07 57 32.7 18.6 R E12 – Siding Spring Survey MPS 112690
2004 09 06.62927 22 37 11.01 -07 57 35.6 18.5 R E12 – Siding Spring Survey MPS 112690
2004 09 06.63490 22 37 10.83 -07 57 37.5 18.3 R E12 – Siding Spring Survey MPS 112690
2004 09 08.18054 22 36 08.46 -08 08 30.2 18.9   704 – Lincoln Laboratory ETS, New Mexico MPS 112690
2004 09 08.19146 22 36 08.04 -08 08 36.1 19.2   704 – Lincoln Laboratory ETS, New Mexico MPS 112690
2004 09 08.21354 22 36 07.10 -08 08 44.8 19.3   704 – Lincoln Laboratory ETS, New Mexico MPS 112690
2004 09 08.22448 22 36 06.64 -08 08 49.4 19.1   704 – Lincoln Laboratory ETS, New Mexico MPS 112690
2004 09 09.17860 22 35 28.43 -08 15 27.5 18.9   704 – Lincoln Laboratory ETS, New Mexico MPS 112690
2004 09 09.18980 22 35 27.95 -08 15 32.6 19.5   704 – Lincoln Laboratory ETS, New Mexico MPS 112690
2004 09 09.20096 22 35 27.56 -08 15 36.4 19.4   704 – Lincoln Laboratory ETS, New Mexico MPS 112690
2004 09 09.21274 22 35 27.05 -08 15 42.0 19.2   704 – Lincoln Laboratory ETS, New Mexico MPS 112690
2004 09 09.22390 22 35 26.59 -08 15 46.6 18.9   704 – Lincoln Laboratory ETS, New Mexico MPS 112690
2004 09 13.23726 22 32 49.57 -08 43 16.1 19.9   704 – Lincoln Laboratory ETS, New Mexico MPS 112815
2004 09 13.24881 22 32 49.12 -08 43 19.4 18.9   704 – Lincoln Laboratory ETS, New Mexico MPS 112815
2004 09 13.26037 22 32 48.65 -08 43 23.3 19.0   704 – Lincoln Laboratory ETS, New Mexico MPS 112815
2004 09 13.27191 22 32 48.17 -08 43 27.8 19.3   704 – Lincoln Laboratory ETS, New Mexico MPS 112815
2004 09 15.19896 22 31 35.79 -08 56 19.0 18.7 R 699 – Lowell Observatory-LONEOS MPS 112815
2004 09 15.21355 22 31 35.20 -08 56 24.9   699 – Lowell Observatory-LONEOS MPS 112815
2004 09 15.22813 22 31 34.65 -08 56 31.2   699 – Lowell Observatory-LONEOS MPS 112815
2004 09 15.24271 22 31 34.09 -08 56 36.7   699 – Lowell Observatory-LONEOS MPS 112815
2004 09 17.21468 22 30 22.23 -09 09 28.0 19.0   704 – Lincoln Laboratory ETS, New Mexico MPS 114333
2004 09 17.22641 22 30 21.81 -09 09 31.4 19.3   704 – Lincoln Laboratory ETS, New Mexico MPS 114333
2004 09 17.24992 22 30 20.97 -09 09 41.6 18.9   704 – Lincoln Laboratory ETS, New Mexico MPS 114333
2004 09 17.26166 22 30 20.50 -09 09 45.6 19.4   704 – Lincoln Laboratory ETS, New Mexico MPS 114333
2004 09 18.51905 22 29 36.13 -09 17 43.9 18.4 R E12 – Siding Spring Survey MPS 114333
2004 09 18.52749 22 29 35.84 -09 17 46.1 18.9 R E12 – Siding Spring Survey MPS 114333
2004 09 18.53591 22 29 35.58 -09 17 49.1 18.7 R E12 – Siding Spring Survey MPS 114333
2004 09 18.54435 22 29 35.27 -09 17 52.5 19.5 R E12 – Siding Spring Survey MPS 114333
2004 09 21.24461 22 28 04.13 -09 34 39.9 19.5   704 – Lincoln Laboratory ETS, New Mexico MPS 114333
2004 09 21.25700 22 28 03.71 -09 34 44.3 19.5   704 – Lincoln Laboratory ETS, New Mexico MPS 114333
2004 09 21.26951 22 28 03.26 -09 34 48.8 19.8   704 – Lincoln Laboratory ETS, New Mexico MPS 114333
2004 09 21.28187 22 28 02.87 -09 34 53.4 19.5   704 – Lincoln Laboratory ETS, New Mexico MPS 114333
2004 10 04.18759 22 22 22.80 -10 43 30.0 19.0   644 – Palomar Mountain/NEAT MPS 117592
2004 10 04.20912 22 22 22.35 -10 43 36.4 19.0   644 – Palomar Mountain/NEAT MPS 117592
2004 10 04.23388 22 22 21.85 -10 43 43.1 18.8   644 – Palomar Mountain/NEAT MPS 117592
2004 10 10.17131 22 20 48.01 -11 07 54.5 19.6   644 – Palomar Mountain/NEAT MPS 116596
2004 10 10.19241 22 20 47.71 -11 07 59.5 20.3   644 – Palomar Mountain/NEAT MPS 116596
2004 10 10.21339 22 20 47.45 -11 08 03.9 19.8   644 – Palomar Mountain/NEAT MPS 116596
2004 10 11.21722 22 20 35.88 -11 11 38.8 20.1 R G92 – Jarnac Observatory, Vail MPS 116596
2004 10 11.25661 22 20 35.37 -11 11 46.9 20.2 R G92 – Jarnac Observatory, Vail MPS 116596
2004 10 11.29540 22 20 34.94 -11 11 54.9 19.9 R G92 – Jarnac Observatory, Vail MPS 116596
2004 10 14.09550 22 20 10.07 -11 21 06.4 20.2 V 691 – Steward Observatory, Kitt Peak-Spacewatch MPS 116596
